Preview of NWS' New Version of Forecast
This preview is not operational and should not be used for support decisions.

Regional Weather Roundup (RWR)

Issued by Philadelphia/Mt Holly (PHI)

                            
000
ASUS41 KPHI 181812
RWRPHI

REGIONAL WEATHER ROUNDUP
NATIONAL WEATHER SERVICE MOUNT HOLLY NJ
200 PM EDT WED SEP 18 2019

NOTE:  "FAIR" INDICATES FEW OR NO CLOUDS BELOW 12,000 FEET WITH NO
SIGNIFICANT WEATHER AND/OR OBSTRUCTIONS TO VISIBILITY.

 * = STATION DOES NOT REPORT PRECIPITATION (E.G. RAIN, SNOW, ETC.) 
        OR FOG.

NJZ015>026-181900-
SOUTHERN NEW JERSEY
  
CITY           SKY/WX    TMP DP  RH WIND       PRES   REMARKS
POMONA         PTSUNNY   70  51  51 NE20G28   30.20S                  
6HR MIN TEMP:  57; 6HR MAX TEMP:  72;                                

WILDWOOD*      CLOUDY    69  53  56 E14G23    30.20S                  
MILLVILLE      FAIR      73  50  44 NE8       30.20S                  
WRIGHTSTOWN    FAIR      70  49  46 NE8       30.21S                  
MOUNT HOLLY    FAIR      72  51  47 NE8       30.21F                  
TRENTON        FAIR      71  49  45 N12       30.21F                  
6HR MIN TEMP:  56; 6HR MAX TEMP:  71;                                


$$
NJZ001>014-181900-
NORTHERN NEW JERSEY
  
CITY           SKY/WX    TMP DP  RH WIND       PRES   REMARKS
SUSSEX         FAIR      69  47  45 E8        30.25F                  
ANDOVER*         N/A     68  47  46 VRB3      30.24F                  
MORRISTOWN     PTSUNNY   70  52  52 E6        30.24S                  
NEWARK         PTSUNNY   69  49  48 NE7       30.23F                  
TETERBORO      PTSUNNY   69  46  43 NE9       30.22F                  
CALDWELL       FAIR      71  47  42 VRB6      30.24F                  
SOMERVILLE     FAIR      70  47  43 VRB6      30.21F                  
ALLAIRE*       CLOUDY    67  52  58 NE12      30.23F                  
TOMS RIVER*    PTSUNNY   67  54  63 E10       30.22F                  

$$
PAZ043-044-047-054-055-060>062-066>071-181900-
EASTERN PENNSYLVANIA
  
CITY           SKY/WX    TMP DP  RH WIND       PRES   REMARKS
PHILADELPHIA   FAIR      74  48  39 NE9G20    30.21F                  
6HR MIN TEMP:  61; 6HR MAX TEMP:  75;                                

NORTH PHILA    PTSUNNY   71  48  43 NE12      30.23S                  
BLUE BELL*     PTSUNNY   71  50  46 E7        30.22F                  
DOYLESTOWN     FAIR      73  45  36 VRB6      30.22F                  
QUAKERTOWN*    MOSUNNY   70  50  49 CALM      30.23                   
PERKASIE*      MOCLDY    66  48  52 N5        30.24S                  
POTTSTOWN      FAIR      69  50  50 NE7       30.24F                  
LANCASTER      FAIR      75  50  41 NE9       30.22F                  
COATESVILLE    FAIR      70  50  49 E9G16     30.23F                  
WEST CHESTER   FAIR      72  46  40 NE8       30.22S                  
READING        FAIR      72  50  45 VRB5      30.22S                  
6HR MIN TEMP:  56; 6HR MAX TEMP:  73;                                

ALLENTOWN      FAIR      71  46  40 NE6       30.24S                  
6HR MIN TEMP:  55; 6HR MAX TEMP:  72; 6HR PCP: TRACE;                

QN CITY/ALNTWN FAIR      70  48  46 NE6       30.25S                  
MOUNT POCONO   FAIR      64  44  48 VRB7      30.25F                  
6HR MIN TEMP:  50; 6HR MAX TEMP:  65;                                

HAZLETON       FAIR      68  43  40 NE6       30.28S                  
LEHIGHTON      FAIR      70  45  40 S3        30.24S                  
WILKES BARRE   FAIR      73  41  31 N10       30.23F                  

$$
DEZALL-MDZ008-012-015-019-020-181900-
DELAWARE AND EASTERN MARYLAND
  
CITY           SKY/WX    TMP DP  RH WIND       PRES   REMARKS
WILMINGTON     FAIR      75  53  46 NE8       30.21F                  
6HR MIN TEMP:  58; 6HR MAX TEMP:  75;                                

DOVER          CLOUDY    72  52  49 NE8       30.20S                  
CHESWOLD       PTCLDY    73  54  49 E9        30.20S                  
GEORGETOWN     NOT AVBL                                               
EASTON         PTSUNNY   73  50  43 NE13      30.23F                  
STEVENSVILLE   PTSUNNY   72  55  56 N7        30.20F                  
ABERDEEN       PTSUNNY   75  52  43 E9        30.20F                  
PATUXENT       FAIR      76  51  41 N8G17     30.18                   
OCEAN CITY     FAIR      71  54  54 NE14G24   30.18F                  
WALLOPS ISLAND PTSUNNY   73  53  49 NE21G29   30.17F                  
CAMBRIDGE      MOSUNNY   75  50  41 NE7G16    30.18F                  
SALISBURY      CLOUDY    70  53  54 NE12      30.18F                  

$$
PAZ001-021-NYZ056-072-MDZ011-DCZ001-181900-
OTHER NEARBY LOCATIONS
  
CITY           SKY/WX    TMP DP  RH WIND       PRES   REMARKS
HARRISBURG     FAIR      74  44  34 CALM      30.21F                  
STATE COLLEGE  SUNNY     68  50  52 E3        30.25F                  
WILLIAMSPORT   FAIR      75  39  27 VRB7      30.22F                  
BINGHAMTON     FAIR      66  41  40 VRB3      30.28S                  
NEW YORK CITY  CLOUDY    67  49  52 VRB5      30.26F                  
BALTIMORE      FAIR      77  51  40 E9        30.19F                  
WASHINGTON DC  PTSUNNY   76  50  40 NE10      30.19F                  

$$